User: anonymous   Login
Location: Ladysmith
(45.4630°N, 91.1040°W)
Time: 03:31:56
(UTC-05:00)
Language:

SO-67 - Orbit

View from above orbital plane
View from above orbital plane
View from above satellite
View from above satellite

Ground track
Ground track

The orbit data is extracted from the following two-line orbital elements,

1 35870U 09049F   16271.54527910  .00007046  00000-0  12550-3 0  9998
2 35870  97.1171 285.0701 0001956  64.6556 295.5424 15.50104820392659
Epoch (UTC): 27 September 2016 13:05:12
Eccentricity: 0.0001956
inclination: 97.1171°
perigee height: 415 km
apogee height: 418 km
right ascension of ascending node: 285.0701°
argument of perigee: 64.6556°
revolutions per day: 15.50104820
mean anomaly at epoch: 295.5424°
orbit number at epoch: 39265

The dashed part of the orbit path shows where the satellite is in the earth's shadow,  

DLR